User: anonymous   Login
Location: Unspecified
(0.0000°N, 0.0000°E)
Time: 00:01:35
(UTC+02:00)
Language:

H-2A R/B - Orbit

View from above orbital plane
View from above orbital plane
View from above satellite
View from above satellite

Ground track
Ground track

The orbit data is extracted from the following two-line orbital elements,

1 28932U 06002B   16273.73891675  .00000906  00000-0  90754-4 0  9991
2 28932  98.2054 180.1979 0091980  84.7760 331.3562 14.91041405578998
Epoch (UTC): 29 September 2016 17:44:02
Eccentricity: 0.0091980
inclination: 98.2054°
perigee height: 530 km
apogee height: 659 km
right ascension of ascending node: 180.1979°
argument of perigee: 84.7760°
revolutions per day: 14.91041405
mean anomaly at epoch: 331.3562°
orbit number at epoch: 57899

The dashed part of the orbit path shows where the satellite is in the earth's shadow,  

DLR